Palmdale - Butte, CA

12:31 AM PDT on September 20, 2019 (GMT -0700)
Palmdale - Butte

Weather History for KGXA - August, 2019

Change the Weather History Date:

Sunday, August 25, 2019

  Actual Average (KPMD) Record (KPMD)
Temperature  
Mean Temperature 81 °F 80 °F  
Max Temperature 100 °F 97 °F 108 °F (1931)
Min Temperature 63 °F 64 °F 48 °F (1983)
Degree Days  
Heating Degree Days 0 0  
Month to date heating degree days 0  
Since 1 June heating degree days 7  
Since 1 July heating degree days 0  
Cooling Degree Days 16 15  
Month to date cooling degree days 419  
Year to date cooling degree days 1397  
Since 1 June cooling degree days 1227  
Growing Degree Days 31 (Base 50)    
Moisture  
Dew Point 35 °F    
Average Humidity 19    
Maximum Humidity 31    
Minimum Humidity 8    
Precipitation  
Precipitation 0.00 in 0.00 in 0.52 in (1935)
Month to date precipitation 0.10  
Year to date precipitation 5.52  
Snow  
Snow 0.00 in - 0.00 in (1973)
Month to date snowfall  
Since 1 June snowfall  
Since 1 July snowfall  
Snow Depth -    
Sea Level Pressure  
Sea Level Pressure 29.91 in    
Wind  
Wind Speed 6 mph (WSW)    
Max Wind Speed 17 mph    
Max Gust Speed 28 mph    
Visibility 10 miles    
Events      
T = Trace of Precipitation, MM = Missing Value Source: NWS Daily Summary

Daily Weather History Graph

Daily Weather History Graph

Search for Another Location

Airport or City:

Astronomy

Aug. 25, 2019 Rise Set
Actual Time 6:18 AM PDT 7:26 PM PDT
Civil Twilight 5:52 AM PDT 7:52 PM PDT
Nautical Twilight 5:21 AM PDT 8:23 PM PDT
Astronomical Twilight 4:49 AM PDT 8:55 PM PDT
Moon 1:04 AM PDT (8/25) 3:43 PM PDT (8/25)
Length of Visible Light 13h 59m
Length of Day
13h 07m
Waning Crescent, 28% of the Moon is Illuminated
Aug 25
Waning Crescent
Aug 30
New
Sep 5
First Quarter
Sep 13
Full
Sep 21
Last Quarter

Hourly Weather History & Observations

Time (PDT) Temp. Dew Point Humidity Pressure Visibility Wind Dir Wind Speed Gust Speed Precip Events Conditions
12:58 AM 67.8 °F 33.3 °F 28% 29.94 in 10.0 mi South 4.6 mph - N/A   Clear
1:58 AM 65.7 °F 34.2 °F 31% 29.93 in 10.0 mi South 4.6 mph - N/A   Clear
2:58 AM 65.7 °F 26.4 °F 23% 29.93 in 10.0 mi South 3.5 mph - N/A   Clear
3:58 AM 65.8 °F 28.2 °F 24% 29.94 in 10.0 mi Variable 3.5 mph - N/A   Clear
4:58 AM 65.3 °F 24.4 °F 21% 29.94 in 10.0 mi SSE 5.8 mph - N/A   Clear
5:58 AM 63.5 °F 23.4 °F 22% 29.95 in 10.0 mi Variable 3.5 mph - N/A   Clear
6:58 AM 67.6 °F 24.1 °F 19% 29.96 in 10.0 mi South 4.6 mph - N/A   Clear
7:58 AM 81.5 °F 27.9 °F 14% 29.96 in 10.0 mi Calm Calm - N/A   Clear
9:58 AM 88.5 °F 28.9 °F 12% 29.97 in 10.0 mi Calm Calm - N/A   Clear
10:58 AM 92.5 °F 23.7 °F 8% 29.95 in 10.0 mi West 4.6 mph - N/A   Clear
11:58 AM 94.6 °F 26.4 °F 9% 29.94 in 10.0 mi Variable 3.5 mph - N/A   Clear
12:58 PM 95.4 °F 37.2 °F 13% 29.92 in 10.0 mi NW 6.9 mph - N/A   Partly Cloudy
1:58 PM 99.7 °F 35.4 °F 11% 29.90 in 10.0 mi WSW 8.1 mph - N/A   Clear
2:58 PM 97.9 °F 36.7 °F 12% 29.88 in 10.0 mi NW 10.4 mph - N/A   Clear
3:58 PM 97.3 °F 39.7 °F 14% 29.87 in 10.0 mi NNW 6.9 mph - N/A   Clear
4:03 PM 98.6 °F 41.0 °F 14% 29.85 in 10.0 mi WNW 17.3 mph 27.6 mph N/A   Clear
4:58 PM 98.2 °F 44.1 °F 16% 29.85 in 10.0 mi West 11.5 mph 17.3 mph N/A   Clear
5:58 PM 94.1 °F 48.0 °F 21% 29.86 in 10.0 mi West 13.8 mph - N/A   Clear
6:58 PM 90.5 °F 47.7 °F 23% 29.86 in 10.0 mi West 16.1 mph - N/A   Clear
7:58 PM 85.8 °F 49.3 °F 28% 29.86 in 10.0 mi West 11.5 mph - N/A   Clear
8:58 PM 83.5 °F 45.5 °F 26% 29.88 in 10.0 mi West 8.1 mph - N/A   Clear
9:58 PM 81.7 °F 41.4 °F 24% 29.88 in 10.0 mi WSW 6.9 mph - N/A   Clear
10:58 PM 81.5 °F 33.4 °F 18% 29.87 in 10.0 mi WSW 5.8 mph - N/A   Clear
11:58 PM 82.8 °F 33.4 °F 17% 29.86 in 10.0 mi West 8.1 mph - N/A   Clear